sat.trackr.live / text

‹ back to catalog

STARLINK-5721

NORAD 55617 · 2023-020BA

PAYLOAD ACTIVE UNKNOWN

§ Identity

Operator
Country
US
Launch date
2023-02-12
Launch site
AFETR
Launch vehicle
Mass (kg)
RCS (m²)

Purposes: comms

External: N2YO · Heavens-Above · Gunter

§ Orbital elements

Epoch: 2026-05-25T01:39:02.124576Z

Period
94.27 min
Inclination
43.0033°
Eccentricity
0.0001204
Mean motion
15.27578400 rev/d
Perigee alt
482.2 km
Apogee alt
483.9 km
Semi-major
6,861.2 km
B*
1.5063e-5
RAAN
282.6045°
Arg perigee
274.0061°
Mean anomaly
86.0653°
Rev number
18,072

§ Raw data

STARLINK-57211 55617U 23020BA  26145.06877459  .00000152  00000+0  15063-4 0  99912 55617  43.0033 282.6045 0001204 274.0061  86.0653 15.27578400180728

JSON: /api/v1/satellites/55617 · /tle

For live sub-satellite position, see the globe view (requires WebGL).

§ Visibility from observer

Set your observer location to see the next 7 days of passes ≥ 10°. The values pass through the URL so the page stays shareable.

No JS? Fill the form by hand. The geolocation button needs JavaScript.